Aeroporto :
LOGIN :

Iscrizione | Disclaimer

   EN    FR    IT 

 










Sommario :    VFR   VFR Marginale   IFR   IFR Intensivo   IFR Molto Intensivo
Visibilità : 
Base nubi : 
>= 8 km
>= 3000ft
5 / 8 km
1000 / 3000 ft
1500m / 5 km
500 / 1000 ft
800 / 1500m
200 / 500 ft
< 800m
< 200 ft
Simboli :   Temporali  Nebbia  Neve Forte  Precipitazioni Forti  Vento > 20 kt
SIGMETs :   Varie  Temporali  Ghiacco  Turbolenza  Onda orograficha  Ceneri Vulcaniche






- Altitudine del aeroporto : 598 ft
- Codice IATA : BQH


EGKB - Biggin Hill

ULTIMO METAR :
  • 011350Z 33011KT 9999 SCT023 07/03 Q1025

METARs OBSOLETI :
  • 011320Z 33010KT 9999 SCT023 06/03 Q1025
  • 011250Z 33011KT 9999 FEW025 07/03 Q1025
  • 011220Z 34013KT 9999 FEW020 06/03 Q1025
  • 011150Z 34013KT 9999 FEW020 06/03 Q1025
  • 011120Z 33013KT 9999 FEW025 06/03 Q1025

TAF TAF EGKB
Valido dal 01 a 12 ore il 01 a 21 ore UTC


011057Z 0112/0121 33012KT 9999 FEW025



MetMap, La meteo Aeronautica in un colpo d'occhio ! - Copyright ORBIFLY Dicembre 2007 - Disclaimer

ORBIFLY MET'MAP TEAM :

Programmazione e sviluppo : Alexandra Zaïnal
Concezione : Baudouin d'Aumeries
Aiuto per la programmazione : Marc-Olivier Méhu
Supporto tecnico e logistico : Manuel Goepfert
Aiuto per la traduzione : Arnaldo La Scala

Contatto : metmap@orbifly.com




FONTI E CREDITI :

   NOAA